TimeEDT,TemperatureF,Dew PointF,Humidity,Sea Level PressureIn,VisibilityMPH,Wind Direction,Wind SpeedMPH,Gust SpeedMPH,PrecipitationIn,Events,Conditions,WindDirDegrees,DateUTC
12:15 AM,48.2,46.4,93,30.07,3.0,Calm,Calm,-,N/A,,Mostly Cloudy,0,2013-09-15 04:15:00
12:55 AM,48.2,46.4,93,30.07,0.5,Calm,Calm,-,N/A,,Overcast,0,2013-09-15 04:55:00
1:15 AM,48.2,44.6,87,30.08,0.2,Calm,Calm,-,N/A,,Overcast,0,2013-09-15 05:15:00
1:35 AM,48.2,44.6,87,30.08,0.2,Calm,Calm,-,N/A,,Overcast,0,2013-09-15 05:35:00
1:55 AM,46.4,44.6,93,30.08,0.2,Calm,Calm,-,N/A,,Overcast,0,2013-09-15 05:55:00
2:15 AM,46.4,44.6,93,30.09,0.5,Calm,Calm,-,N/A,,Overcast,0,2013-09-15 06:15:00
2:35 AM,46.4,44.6,93,30.09,0.2,Calm,Calm,-,N/A,,Overcast,0,2013-09-15 06:35:00
2:55 AM,46.4,44.6,93,30.09,0.2,Calm,Calm,-,N/A,,Overcast,0,2013-09-15 06:55:00
3:15 AM,46.4,44.6,93,30.09,0.2,Calm,Calm,-,N/A,,Overcast,0,2013-09-15 07:15:00
3:35 AM,46.4,44.6,93,30.10,0.2,Calm,Calm,-,N/A,,Overcast,0,2013-09-15 07:35:00
3:55 AM,46.4,44.6,93,30.11,0.2,Calm,Calm,-,N/A,,Overcast,0,2013-09-15 07:55:00
4:15 AM,46.4,44.6,93,30.11,0.2,Calm,Calm,-,N/A,,Overcast,0,2013-09-15 08:15:00
4:35 AM,46.4,44.6,93,30.12,0.2,Calm,Calm,-,N/A,,Overcast,0,2013-09-15 08:35:00
4:55 AM,46.4,44.6,93,30.12,0.2,Calm,Calm,-,N/A,,Overcast,0,2013-09-15 08:55:00
5:15 AM,-9999,-9999,N/A,30.11,0.2,Calm,Calm,-,N/A,,Overcast,0,2013-09-15 09:15:00
5:35 AM,-9999,-9999,N/A,30.12,0.2,SSW,3.5,-,N/A,,Overcast,200,2013-09-15 09:35:00
5:55 AM,-9999,-9999,N/A,30.13,0.2,South,3.5,-,N/A,,Overcast,190,2013-09-15 09:55:00
6:15 AM,44.6,42.8,93,30.14,0.2,Calm,Calm,-,N/A,,Overcast,0,2013-09-15 10:15:00
6:35 AM,44.6,42.8,93,30.15,0.2,Calm,Calm,-,N/A,,Overcast,0,2013-09-15 10:35:00
6:55 AM,-9999,-9999,N/A,30.14,0.2,Calm,Calm,-,N/A,,Overcast,0,2013-09-15 10:55:00
7:15 AM,46.4,44.6,93,30.16,0.2,South,3.5,-,N/A,,Overcast,180,2013-09-15 11:15:00
7:35 AM,-9999,-9999,N/A,30.15,0.2,SSW,4.6,-,N/A,,Overcast,210,2013-09-15 11:35:00
7:55 AM,-9999,-9999,N/A,30.15,0.2,Calm,Calm,-,N/A,,Overcast,0,2013-09-15 11:55:00
8:15 AM,46.4,42.8,87,30.15,0.5,SSW,3.5,-,N/A,,Overcast,210,2013-09-15 12:15:00
8:35 AM,-9999,-9999,N/A,30.15,0.5,SW,3.5,-,N/A,,Overcast,230,2013-09-15 12:35:00
8:55 AM,46.4,44.6,93,30.17,2.5,Calm,Calm,-,N/A,,Overcast,0,2013-09-15 12:55:00
9:15 AM,46.4,44.6,93,30.17,9.0,Calm,Calm,-,N/A,,Overcast,0,2013-09-15 13:15:00
9:35 AM,48.2,44.6,87,30.17,10.0,Calm,Calm,-,N/A,,Mostly Cloudy,0,2013-09-15 13:35:00
9:55 AM,50.0,46.4,87,30.17,10.0,South,4.6,-,N/A,,Partly Cloudy,170,2013-09-15 13:55:00
10:15 AM,51.8,46.4,82,30.18,10.0,Calm,Calm,-,N/A,,Partly Cloudy,0,2013-09-15 14:15:00
10:35 AM,53.6,46.4,77,30.17,10.0,South,3.5,-,N/A,,Clear,180,2013-09-15 14:35:00
10:55 AM,57.2,46.4,67,30.16,10.0,South,4.6,-,N/A,,Clear,180,2013-09-15 14:55:00
11:15 AM,57.2,48.2,72,30.16,10.0,SSW,3.5,-,N/A,,Clear,210,2013-09-15 15:15:00
11:35 AM,59.0,46.4,63,30.16,10.0,Calm,Calm,-,N/A,,Clear,0,2013-09-15 15:35:00
11:55 AM,60.8,46.4,59,30.15,10.0,Calm,Calm,-,N/A,,Clear,0,2013-09-15 15:55:00
12:15 PM,62.6,46.4,55,30.14,10.0,South,6.9,-,N/A,,Clear,190,2013-09-15 16:15:00
12:35 PM,64.4,46.4,52,30.13,10.0,SW,4.6,-,N/A,,Clear,230,2013-09-15 16:35:00
12:55 PM,64.4,48.2,56,30.12,10.0,SSW,5.8,-,N/A,,Clear,200,2013-09-15 16:55:00
1:15 PM,66.2,46.4,49,30.11,10.0,SW,6.9,-,N/A,,Clear,230,2013-09-15 17:15:00
1:35 PM,64.4,46.4,52,30.11,10.0,SSW,4.6,-,N/A,,Clear,210,2013-09-15 17:35:00
1:55 PM,66.2,46.4,49,30.11,10.0,SSW,8.1,-,N/A,,Clear,200,2013-09-15 17:55:00
2:15 PM,66.2,46.4,49,30.10,10.0,SW,6.9,-,N/A,,Clear,230,2013-09-15 18:15:00
2:35 PM,64.4,46.4,52,30.10,10.0,SW,5.8,-,N/A,,Clear,220,2013-09-15 18:35:00
2:55 PM,66.2,48.2,52,30.08,10.0,SSW,8.1,-,N/A,,Clear,200,2013-09-15 18:55:00
3:15 PM,-9999,-9999,N/A,30.07,10.0,SW,5.8,-,N/A,,Clear,230,2013-09-15 19:15:00
3:35 PM,66.2,48.2,52,30.08,10.0,South,3.5,-,N/A,,Clear,190,2013-09-15 19:35:00
3:55 PM,66.2,48.2,52,30.07,10.0,SW,3.5,-,N/A,,Clear,230,2013-09-15 19:55:00
4:15 PM,66.2,48.2,52,30.06,10.0,Calm,Calm,-,N/A,,Clear,0,2013-09-15 20:15:00
4:35 PM,66.2,50.0,56,30.06,10.0,WSW,3.5,-,N/A,,Clear,240,2013-09-15 20:35:00
4:55 PM,66.2,46.4,49,30.06,10.0,Calm,Calm,-,N/A,,Clear,0,2013-09-15 20:55:00
5:15 PM,66.2,48.2,52,30.06,10.0,SW,4.6,-,N/A,,Clear,220,2013-09-15 21:15:00
5:35 PM,66.2,51.8,60,30.06,10.0,SSW,6.9,-,N/A,,Clear,210,2013-09-15 21:35:00
5:55 PM,64.4,51.8,64,30.06,10.0,South,5.8,-,N/A,,Clear,180,2013-09-15 21:55:00
6:15 PM,62.6,53.6,72,30.06,10.0,Calm,Calm,-,N/A,,Clear,0,2013-09-15 22:15:00
6:35 PM,60.8,53.6,77,30.05,10.0,Calm,Calm,-,N/A,,Clear,0,2013-09-15 22:35:00
6:55 PM,59.0,53.6,82,30.05,10.0,Calm,Calm,-,N/A,,Clear,0,2013-09-15 22:55:00
7:15 PM,57.2,53.6,88,30.05,10.0,Calm,Calm,-,N/A,,Clear,0,2013-09-15 23:15:00
7:35 PM,57.2,53.6,88,30.05,10.0,SSW,3.5,-,N/A,,Clear,200,2013-09-15 23:35:00
7:55 PM,57.2,53.6,88,30.06,10.0,South,3.5,-,N/A,,Clear,190,2013-09-15 23:55:00
8:15 PM,55.4,51.8,88,30.06,10.0,SW,6.9,-,N/A,,Clear,220,2013-09-16 00:15:00
8:35 PM,57.2,53.6,88,30.06,10.0,South,4.6,-,N/A,,Clear,180,2013-09-16 00:35:00
8:55 PM,55.4,51.8,88,30.07,10.0,Calm,Calm,-,N/A,,Clear,0,2013-09-16 00:55:00
9:15 PM,55.4,51.8,88,30.07,10.0,Calm,Calm,-,N/A,,Clear,0,2013-09-16 01:15:00
9:35 PM,55.4,51.8,88,30.06,10.0,Calm,Calm,-,N/A,,Clear,0,2013-09-16 01:35:00
9:55 PM,55.4,51.8,88,30.06,10.0,Calm,Calm,-,N/A,,Clear,0,2013-09-16 01:55:00
10:15 PM,55.4,51.8,88,30.06,10.0,Calm,Calm,-,N/A,,Clear,0,2013-09-16 02:15:00
10:35 PM,53.6,51.8,94,30.06,10.0,Calm,Calm,-,N/A,,Clear,0,2013-09-16 02:35:00
10:55 PM,53.6,50.0,88,30.06,10.0,SSW,4.6,-,N/A,,Clear,200,2013-09-16 02:55:00
11:15 PM,53.6,51.8,94,30.05,10.0,Calm,Calm,-,N/A,,Clear,0,2013-09-16 03:15:00
11:35 PM,53.6,51.8,94,30.05,10.0,Calm,Calm,-,N/A,,Clear,0,2013-09-16 03:35:00
11:55 PM,53.6,50.0,88,30.06,10.0,Calm,Calm,-,N/A,,Clear,0,2013-09-16 03:55:00